Regional Weather Roundup
Issued by NWS Boston, MA

Home | Current Version | Previous Version | Text Only | Print | Product List | Glossary On
Versions: 1 2 3 4 5 6 7 8 9 10 11 12 13 14 15 16 17 18 19 20 21 22 23 24 25 26 27 28 29 30 31 32 33 34 35 36 37 38 39 40 41 42 43 44 45 46 47 48 49 50
000
ASUS41 KBOX 270810
RWRBOX

REGIONAL WEATHER ROUNDUP
NATIONAL WEATHER SERVICE TAUNTON MA
300 AM EST FRI FEB 27 2015

NOTE:  "FAIR" INDICATES FEW OR NO CLOUDS BELOW 12,000 FEET WITH NO
SIGNIFICANT WEATHER AND/OR OBSTRUCTIONS TO VISIBILITY.  THE FOLLOWING
OBSERVATION LOCATIONS DO NOT REPORT PRESENT WEATHER...PROVINCETOWN...
SMITHFIELD...BLOCK ISLAND...KEENE...AND OXFORD.

MAZALL-270900-
EASTERN MASSACHUSETTS

CITY           SKY/WX    TMP DP  RH WIND       PRES   REMARKS
BOSTON         PTCLDY    17   0  47 NW13      30.18R WCI   4
BEVERLY        MOCLDY    14  -5  42 NW7       30.16R WCI   4
LAWRENCE       MOCLDY    14  -3  47 NW5       30.18R WCI   6
BEDFORD        PTCLDY    10  -2  58 NW5       30.17R WCI   2
BLUE HILL        N/A     13  -1  54 NW12      30.11R WCI  -1
NORWOOD        PTCLDY     2  -2  83 CALM      30.18R
MARSHFIELD     CLEAR     14  10  85 W3        30.18R
PLYMOUTH       PTCLDY    12   8  84 NW6       30.16R WCI   3
TAUNTON        CLEAR      4   0  83 CALM      30.17R
NEW BEDFORD    FAIR       7   4  87 CALM      30.16R
$$

MAZALL-270900-
CAPE COD AND THE ISLANDS

CITY           SKY/WX    TMP DP  RH WIND       PRES   REMARKS
FALMOUTH       MOCLDY    16   9  73 NW7       30.15R WCI   6
HYANNIS        CLEAR     19  11  70 W5        30.12R WCI  12
CHATHAM        CLEAR     16  11  80 CALM      30.14R
PROVINCETOWN   CLEAR     25  12  58 NW9       30.14R WCI  15
NANTUCKET      CLEAR     23  13  65 N8        30.13R WCI  14
MARTHAS VNYRD  CLEAR     15   8  73 NW6       30.15R WCI   6
$$

MAZALL-270900-
CENTRAL AND WESTERN MASSACHUSETTS

CITY           SKY/WX    TMP DP  RH WIND       PRES   REMARKS
WORCESTER      CLOUDY    13  -3  49 NW7       30.09R WCI   3
FITCHBURG      CLOUDY    15  -2  46 NW6       30.16R WCI   6
ORANGE         CLOUDY     9  -1  64 N3        30.15R
SPRINGFIELD    MOCLDY     4  -3  73 CALM      30.17R
WESTFIELD      CLOUDY    11   0  61 CALM      30.17R
NORTH ADAMS    CLOUDY     7  -3  64 W6        30.18R WCI  -3
PITTSFIELD     CLOUDY     8   0  69 W3        30.11R
$$

RIZALL-270900-
RHODE ISLAND

CITY           SKY/WX    TMP DP  RH WIND       PRES   REMARKS
PROVIDENCE     CLEAR     12   8  84 W5        30.18R WCI   4
NEWPORT        CLEAR      9   5  84 CALM      30.17R
BLOCK ISLAND   CLEAR     19  10  68 NW3       30.16R
SMITHFIELD     CLEAR     10   3  72 NW5       30.13R WCI   2
WESTERLY       CLEAR      9   6  88 CALM      30.19R
$$

CTZALL-270900-
CONNECTICUT

CITY           SKY/WX    TMP DP  RH WIND       PRES   REMARKS
BRADLEY INTL   MOCLDY    14  -1  51 CALM      30.18R
HARTFORD       CLEAR     16   1  51 N5        30.20R WCI   9
BRIDGEPORT     CLEAR     17   2  51 N5        30.20R WCI  10
DANBURY        CLOUDY     7  -1  70 CALM      30.20R
GROTON         CLEAR     12   9  87 CALM      30.19R
NEW HAVEN      CLEAR     17   1  49 N6        30.19R WCI   9
CHESTER        FAIR      18   3  53 NW5       30.17R WCI  11
MERIDEN        CLEAR     15   0  51 NW6       30.20R WCI   6
WILLIMANTIC    MOCLDY     7   2  80 CALM      30.18R
OXFORD         MOCLDY     9  -8  47 N7        30.15R WCI  -3
$$

MEZ002-015-021-024-NHZ003-005-008-011-012-014-VTZ005-008-270900-
NORTHERN NEW ENGLAND

CITY           SKY/WX    TMP DP  RH WIND       PRES   REMARKS
PORTLAND ME    PTCLDY    13  -7  40 N5        30.16S WCI   5
BANGOR ME      MOCLDY     7  -9  48 NW7       30.15R WCI  -5
CONCORD NH     PTCLDY    11  -8  42 NW6       30.16R WCI   1
MANCHESTER NH  CLOUDY    14  -3  47 NW9       30.16R WCI   2
NASHUA NH      MOCLDY    15  -1  49 CALM      30.18R
PORTSMOUTH NH  MOCLDY    13  -5  44 W6        30.15R WCI   4
JAFFREY NH     CLOUDY    11  -5  48 N3        30.10R
KEENE NH       MOCLDY    10  -2  56 N3        30.16R
BURLINGTON VT  CLEAR     -3 -11  68 CALM      30.23R
MT. WASHINGTON MOCLDY    -8 -15  71 NW29        N/A  WCI -36
$$

NYZ052-076-270900-
EASTERN NEW YORK

CITY           SKY/WX    TMP DP  RH WIND       PRES   REMARKS
ALBANY         CLOUDY     8  -5  55 N6        30.25R WCI  -2
NEW YORK CITY  CLOUDY    21   5  50 N7        30.21R WCI  12
$$

ANZALL-270900-
MARINE OBSERVATIONS

STATION/POSITION TIME  TEMP    WIND        PRES    VSBY  WAVE
                       AIR SEA DIR/SP/G                  HT/PER
                 (UTC) (F)     (DEG/KT/KT) (MB)    (MI)  (FT/S)
BOSTON BUOY      0750   21 36  320/ 14/ 17 1021.3R         4/ 6
BUZZARDS BAY     0800          340/  9/  9 1022.2R
NANTUCKET SOUND  0750   26 31  310/ 12/ 14 1020.8R         1/ 6
MASS BAY-STELLWA 0704   22 37  300/ 16/ 17   N/A    1 7/8  4/11
ISLE OF SHOALS   0800   18     300/ 13/ 15 1020.5R
S OF BLOCK IS    0708      37                N/A           4/11
$$

......................KEY.........................
  SKY/WX - SKY CONDITION/PRESENT WEATHER
  TMP    - TEMPERATURE IN FAHRENHEIT
  DWPT   - DEWPOINT IN FAHRENHEIT
  RH     - RELATIVE HUMIDITY IN PERCENT
  WIND   - DIRECTION AND SPEED IN MPH
  PRES   - MEAN SEA LEVEL PRESSURE IN INCHES OF HG
  WCI    - WIND CHILL INDEX
  VSB    - VISIBILITY IN MILES
  HX     - HEAT INDEX
  TC     - TEMPERATURE IN CELSIUS
  VRB    - VARIABLE WIND DIRECTION
  N/A    - NOT AVAILABLE


USA.gov is the U.S. government's official web portal to all federal, state and local government web resources and services.